VIR91U EGLL-KMCO

Flight info

Callsign VIR91U
Flight time 8h 4m
Altitude 24000
Route CPT L9 BIBPE/N0465F360 DCT BUCGO L9 TIGWE DCT FELCA DCT NICXI DCT OFSOX DCT SLANY DCT NEBIN/M081F380 DCT 54N020W 5430N03000W 5430N04000W 5230N05000W DCT SAXAN/N0469F380 N550A TOPPS/N0472F400 DCT BEEKN Q97 SAWED DCT MOXXY Q85 LPERD GTOUT1
Aircraft A333/H-SDE3GHIJ2J3J5M1RVWXY/LB2D1

Departure

Time 2026-04-23 07:37
Airport London Heathrow Airport (EGLL)

Arrival

Time 2026-04-23 15:42
Airport Orlando International Airport (KMCO)
Time Latitude Longitude Altitude Speed Heading
2026-04-23 06:59 51.47093 -0.46424 93 ft 0 kts 235°
2026-04-23 07:21 51.47098 -0.46413 91 ft 2 kts 235°
2026-04-23 07:21 51.47109 -0.46386 91 ft 3 kts 235°
2026-04-23 07:22 51.47118 -0.46367 91 ft 2 kts 235°
2026-04-23 07:22 51.47127 -0.46345 89 ft 4 kts 250°
2026-04-23 07:22 51.47130 -0.46317 92 ft 4 kts 292°
2026-04-23 07:22 51.47120 -0.46297 90 ft 3 kts 326°
2026-04-23 07:23 51.47105 -0.46280 89 ft 3 kts 326°
2026-04-23 07:23 51.47101 -0.46275 89 ft 9 kts 326°
2026-04-23 07:26 51.47101 -0.46276 89 ft 1 kts 326°
2026-04-23 07:27 51.47141 -0.46320 94 ft 13 kts 326°
2026-04-23 07:27 51.47222 -0.46411 94 ft 12 kts 320°
2026-04-23 07:27 51.47238 -0.46522 89 ft 10 kts 272°
2026-04-23 07:27 51.47238 -0.46633 89 ft 3 kts 270°
2026-04-23 07:28 51.47238 -0.46635 89 ft 1 kts 270°
2026-04-23 07:28 51.47238 -0.46672 89 ft 7 kts 270°
2026-04-23 07:28 51.47238 -0.46777 89 ft 10 kts 270°
2026-04-23 07:28 51.47205 -0.46858 91 ft 8 kts 204°
2026-04-23 07:29 51.47146 -0.46866 89 ft 9 kts 181°
2026-04-23 07:29 51.47080 -0.46867 91 ft 10 kts 179°
2026-04-23 07:29 51.47006 -0.46865 89 ft 11 kts 179°
2026-04-23 07:29 51.46926 -0.46864 89 ft 12 kts 180°
2026-04-23 07:30 51.46839 -0.46864 92 ft 13 kts 180°
2026-04-23 07:30 51.46747 -0.46863 92 ft 14 kts 180°
2026-04-23 07:30 51.46663 -0.46903 92 ft 12 kts 234°
2026-04-23 07:30 51.46656 -0.47027 92 ft 12 kts 270°
2026-04-23 07:31 51.46655 -0.47162 92 ft 13 kts 270°
2026-04-23 07:31 51.46655 -0.47313 92 ft 14 kts 270°
2026-04-23 07:31 51.46655 -0.47477 92 ft 15 kts 269°
2026-04-23 07:31 51.46654 -0.47653 90 ft 16 kts 269°
2026-04-23 07:32 51.46653 -0.47837 91 ft 17 kts 270°
2026-04-23 07:32 51.46653 -0.48031 89 ft 18 kts 270°
2026-04-23 07:32 51.46652 -0.48233 90 ft 18 kts 269°
2026-04-23 07:32 51.46651 -0.48438 90 ft 19 kts 269°
2026-04-23 07:33 51.46650 -0.48614 91 ft 13 kts 269°
2026-04-23 07:33 51.46633 -0.48741 92 ft 7 kts 228°
2026-04-23 07:33 51.46604 -0.48766 92 ft 0 kts 203°
2026-04-23 07:34 51.46601 -0.48768 92 ft 0 kts 203°
2026-04-23 07:35 51.46569 -0.48785 92 ft 10 kts 195°
2026-04-23 07:35 51.46501 -0.48767 92 ft 9 kts 144°
2026-04-23 07:35 51.46478 -0.48686 93 ft 7 kts 97°
2026-04-23 07:35 51.46478 -0.48606 92 ft 7 kts 90°
2026-04-23 07:36 51.46479 -0.48524 91 ft 8 kts 89°
2026-04-23 07:36 51.46479 -0.48432 91 ft 12 kts 89°
2026-04-23 07:36 51.46480 -0.48005 89 ft 70 kts 90°
2026-04-23 07:36 51.46482 -0.46889 94 ft 128 kts 90°
2026-04-23 07:37 51.46485 -0.45209 102 ft 175 kts 89°
2026-04-23 07:37 51.46479 -0.43176 769 ft 182 kts 89°
2026-04-23 07:37 51.46455 -0.41112 1427 ft 195 kts 91°
2026-04-23 07:37 51.46336 -0.38843 1949 ft 209 kts 105°
2026-04-23 07:38 51.45475 -0.36942 2503 ft 227 kts 147°
2026-04-23 07:38 51.43895 -0.36420 3143 ft 248 kts 187°
2026-04-23 07:38 51.42320 -0.37708 3746 ft 266 kts 223°
2026-04-23 07:38 51.41401 -0.40310 4307 ft 278 kts 250°
2026-04-23 07:39 51.40887 -0.43294 4808 ft 278 kts 251°
2026-04-23 07:39 51.40361 -0.46319 5346 ft 286 kts 260°
2026-04-23 07:39 51.40408 -0.49484 5853 ft 288 kts 279°
2026-04-23 07:39 51.40915 -0.52611 6397 ft 290 kts 285°
2026-04-23 07:40 51.41421 -0.55732 7009 ft 292 kts 280°
2026-04-23 07:40 51.41746 -0.58942 7596 ft 291 kts 277°
2026-04-23 07:40 51.42089 -0.62168 8164 ft 298 kts 281°
2026-04-23 07:40 51.42555 -0.65397 8646 ft 295 kts 282°
2026-04-23 07:41 51.42977 -0.68645 9143 ft 300 kts 278°
2026-04-23 07:41 51.43312 -0.71926 9635 ft 300 kts 278°
2026-04-23 07:41 51.43708 -0.75232 10129 ft 302 kts 281°
2026-04-23 07:41 51.44162 -0.78539 10606 ft 305 kts 281°
2026-04-23 07:42 51.44566 -0.81893 11053 ft 307 kts 279°
2026-04-23 07:42 51.44949 -0.85342 11313 ft 323 kts 279°
2026-04-23 07:42 51.45402 -0.88970 11582 ft 340 kts 281°
2026-04-23 07:42 51.45874 -0.92782 11861 ft 356 kts 279°
2026-04-23 07:43 51.46297 -0.96744 12123 ft 363 kts 278°
2026-04-23 07:43 51.46735 -1.00760 12432 ft 367 kts 279°
2026-04-23 07:43 51.47222 -1.04780 12909 ft 371 kts 280°
2026-04-23 07:43 51.47696 -1.08880 13424 ft 375 kts 279°
2026-04-23 07:44 51.48135 -1.12955 13913 ft 377 kts 279°
2026-04-23 07:44 51.48602 -1.17116 14417 ft 380 kts 280°
2026-04-23 07:44 51.49310 -1.21192 14859 ft 383 kts 295°
2026-04-23 07:44 51.50083 -1.23213 15132 ft 384 kts 309°
2026-04-23 07:45 51.51968 -1.26260 15615 ft 386 kts 319°
2026-04-23 07:45 51.53959 -1.29178 16097 ft 388 kts 317°
2026-04-23 07:45 51.55904 -1.32185 16589 ft 389 kts 316°
2026-04-23 07:45 51.57874 -1.35203 17082 ft 392 kts 317°
2026-04-23 07:46 51.59885 -1.38183 17581 ft 393 kts 317°
2026-04-23 07:46 51.61563 -1.41646 18101 ft 396 kts 299°
2026-04-23 07:46 51.62801 -1.45633 18661 ft 401 kts 296°
2026-04-23 07:46 51.64074 -1.49622 19113 ft 400 kts 299°
2026-04-23 07:47 51.65430 -1.53469 19550 ft 401 kts 301°
2026-04-23 07:47 51.66772 -1.57409 20024 ft 401 kts 299°
2026-04-23 07:47 51.68048 -1.61411 20503 ft 402 kts 298°
2026-04-23 07:47 51.69342 -1.65414 20970 ft 402 kts 300°
2026-04-23 07:48 51.70460 -1.69542 21454 ft 406 kts 286°
2026-04-23 07:48 51.70828 -1.74068 21959 ft 410 kts 276°
2026-04-23 07:48 51.71091 -1.78668 22460 ft 412 kts 279°
2026-04-23 07:48 51.71503 -1.83245 22980 ft 414 kts 281°
2026-04-23 07:49 51.71891 -1.87862 23505 ft 417 kts 278°
2026-04-23 07:49 51.72156 -1.92539 24031 ft 420 kts 277°
2026-04-23 07:49 51.72444 -1.97238 24478 ft 422 kts 279°
2026-04-23 07:49 51.72832 -2.01938 24929 ft 424 kts 280°
2026-04-23 07:50 51.73191 -2.06578 25395 ft 426 kts 278°
2026-04-23 07:50 51.73482 -2.11359 25597 ft 434 kts 277°
2026-04-23 07:50 51.73797 -2.16228 25550 ft 435 kts 278°
2026-04-23 07:50 51.74160 -2.21017 25570 ft 441 kts 279°
2026-04-23 07:51 51.74507 -2.25919 26339 ft 431 kts 278°
2026-04-23 07:51 51.74809 -2.30724 26882 ft 433 kts 278°
2026-04-23 07:51 51.75139 -2.35613 27115 ft 440 kts 278°
2026-04-23 07:51 51.75488 -2.40514 27605 ft 440 kts 278°
2026-04-23 07:52 51.75815 -2.45443 27994 ft 443 kts 277°
2026-04-23 07:52 51.76130 -2.50401 28384 ft 446 kts 277°
2026-04-23 07:52 51.76466 -2.55419 28584 ft 454 kts 278°
2026-04-23 07:52 51.76814 -2.60552 28609 ft 465 kts 277°
2026-04-23 07:53 51.77152 -2.65805 28631 ft 476 kts 277°
2026-04-23 07:53 51.77489 -2.71167 28748 ft 483 kts 277°
2026-04-23 07:53 51.77838 -2.76553 29304 ft 480 kts 277°
2026-04-23 07:53 51.78186 -2.81898 29917 ft 477 kts 277°
2026-04-23 07:54 51.78517 -2.87211 30423 ft 475 kts 277°
2026-04-23 07:54 51.78839 -2.92431 30872 ft 474 kts 277°
2026-04-23 07:54 51.79172 -2.97706 31309 ft 472 kts 277°
2026-04-23 07:54 51.79503 -3.02981 31747 ft 470 kts 277°
2026-04-23 07:55 51.79821 -3.08221 32179 ft 468 kts 277°
2026-04-23 07:55 51.80138 -3.13451 32623 ft 466 kts 277°
2026-04-23 07:55 51.80455 -3.18662 33075 ft 464 kts 277°
2026-04-23 07:55 51.80769 -3.23853 33503 ft 462 kts 277°
2026-04-23 07:56 51.81074 -3.29010 33936 ft 460 kts 277°
2026-04-23 07:56 51.81374 -3.34085 34349 ft 459 kts 277°
2026-04-23 07:56 51.81677 -3.39210 34737 ft 457 kts 277°
2026-04-23 07:56 51.81975 -3.44314 35035 ft 456 kts 277°
2026-04-23 07:57 51.82268 -3.49414 35334 ft 456 kts 277°
2026-04-23 07:57 51.82596 -3.54512 35638 ft 454 kts 281°
2026-04-23 07:57 51.83237 -3.59507 35888 ft 454 kts 284°
2026-04-23 07:57 51.83944 -3.64470 36182 ft 454 kts 283°
2026-04-23 07:58 51.84572 -3.69472 36460 ft 454 kts 282°
2026-04-23 07:58 51.85838 -3.79566 36431 ft 455 kts 284°
2026-04-23 07:59 51.87127 -3.89433 36425 ft 454 kts 282°
2026-04-23 07:59 51.88379 -3.99451 36400 ft 454 kts 283°
2026-04-23 08:00 51.89450 -4.07772 36411 ft 454 kts 282°
2026-04-23 08:00 51.90895 -4.19439 36405 ft 454 kts 282°
2026-04-23 08:01 51.92145 -4.29468 36406 ft 455 kts 282°
2026-04-23 08:01 51.93180 -4.37900 36385 ft 456 kts 282°
2026-04-23 08:02 51.94421 -4.47970 36375 ft 456 kts 282°
2026-04-23 08:02 51.95635 -4.57981 36377 ft 455 kts 282°
2026-04-23 08:03 51.96853 -4.68054 36397 ft 455 kts 281°
2026-04-23 08:03 51.98057 -4.78121 36402 ft 454 kts 281°
2026-04-23 08:04 51.99251 -4.88152 36399 ft 454 kts 281°
2026-04-23 08:04 52.00437 -4.98219 36379 ft 454 kts 281°
2026-04-23 08:05 52.01613 -5.08305 36387 ft 454 kts 281°
2026-04-23 08:05 52.02797 -5.18387 36381 ft 454 kts 282°
2026-04-23 08:06 52.04693 -5.28171 36358 ft 455 kts 289°
2026-04-23 08:06 52.06633 -5.37943 36360 ft 454 kts 287°
2026-04-23 08:07 52.08594 -5.47634 36379 ft 454 kts 288°
2026-04-23 08:07 52.10544 -5.57411 36373 ft 455 kts 287°
2026-04-23 08:08 52.12499 -5.67211 36373 ft 455 kts 288°
2026-04-23 08:08 52.14445 -5.77040 36360 ft 456 kts 287°
2026-04-23 08:09 52.16379 -5.86887 36362 ft 457 kts 287°
2026-04-23 08:09 52.18220 -5.96795 36363 ft 456 kts 286°
2026-04-23 08:10 52.20135 -6.06675 36360 ft 456 kts 286°
2026-04-23 08:10 52.22877 -6.21506 36350 ft 458 kts 287°
2026-04-23 08:11 52.24772 -6.31494 36350 ft 459 kts 285°
2026-04-23 08:11 52.26563 -6.41426 36366 ft 459 kts 286°
2026-04-23 08:12 52.28457 -6.51402 36363 ft 460 kts 285°
2026-04-23 08:12 52.30242 -6.61453 36352 ft 460 kts 284°
2026-04-23 08:13 52.32114 -6.71479 36354 ft 460 kts 285°
2026-04-23 08:13 52.33913 -6.81545 36354 ft 461 kts 284°
2026-04-23 08:14 52.35736 -6.91532 36344 ft 461 kts 285°
2026-04-23 08:14 52.37520 -7.01681 36350 ft 461 kts 284°
2026-04-23 08:15 52.39338 -7.11691 36334 ft 462 kts 285°
2026-04-23 08:15 52.41126 -7.21800 36338 ft 461 kts 284°
2026-04-23 08:16 52.42885 -7.31910 36349 ft 462 kts 285°
2026-04-23 08:16 52.44696 -7.42041 36336 ft 463 kts 284°
2026-04-23 08:17 52.46432 -7.52203 36334 ft 463 kts 284°
2026-04-23 08:17 52.48228 -7.62372 36340 ft 464 kts 284°
2026-04-23 08:18 52.49961 -7.72585 36335 ft 465 kts 284°
2026-04-23 08:18 52.51721 -7.82731 36330 ft 465 kts 284°
2026-04-23 08:19 52.53445 -7.92965 36328 ft 465 kts 284°
2026-04-23 08:19 52.55194 -8.03205 36332 ft 465 kts 283°
2026-04-23 08:20 52.56912 -8.13477 36318 ft 466 kts 283°
2026-04-23 08:20 52.58630 -8.23744 36307 ft 466 kts 283°
2026-04-23 08:21 52.60355 -8.34042 36298 ft 466 kts 283°
2026-04-23 08:21 52.62041 -8.44345 36291 ft 466 kts 283°
2026-04-23 08:22 52.63740 -8.54590 36284 ft 467 kts 283°
2026-04-23 08:22 52.65408 -8.64928 36299 ft 467 kts 282°
2026-04-23 08:23 52.67113 -8.75277 36306 ft 469 kts 283°
2026-04-23 08:23 52.68777 -8.85701 36303 ft 469 kts 282°
2026-04-23 08:24 52.70464 -8.96109 36303 ft 470 kts 283°
2026-04-23 08:24 52.72108 -9.06538 36294 ft 470 kts 282°
2026-04-23 08:25 52.73775 -9.16954 36300 ft 470 kts 282°
2026-04-23 08:25 52.75403 -9.27412 36304 ft 471 kts 282°
2026-04-23 08:26 52.77059 -9.37894 36298 ft 471 kts 282°
2026-04-23 08:26 52.78675 -9.48396 36297 ft 471 kts 282°
2026-04-23 08:27 52.80309 -9.58889 36299 ft 471 kts 281°
2026-04-23 08:27 52.81900 -9.69343 36304 ft 471 kts 282°
2026-04-23 08:28 52.83512 -9.79864 36304 ft 472 kts 281°
2026-04-23 08:28 52.85104 -9.90415 36294 ft 472 kts 281°
2026-04-23 08:29 52.86695 -10.00987 36291 ft 474 kts 281°
2026-04-23 08:29 52.88280 -10.11585 36282 ft 474 kts 281°
2026-04-23 08:30 52.89849 -10.22192 36278 ft 474 kts 281°
2026-04-23 08:30 52.91417 -10.32781 36283 ft 474 kts 281°
2026-04-23 08:31 52.92955 -10.43345 36281 ft 475 kts 280°
2026-04-23 08:31 52.94514 -10.54003 36276 ft 475 kts 280°
2026-04-23 08:32 52.96046 -10.64673 36267 ft 476 kts 280°
2026-04-23 08:32 52.97584 -10.75354 36261 ft 476 kts 279°
2026-04-23 08:33 52.99105 -10.86060 36261 ft 476 kts 280°
2026-04-23 08:33 53.00617 -10.96749 36265 ft 476 kts 279°
2026-04-23 08:34 53.02117 -11.07415 36262 ft 476 kts 279°
2026-04-23 08:34 53.03607 -11.18140 36252 ft 476 kts 279°
2026-04-23 08:35 53.05101 -11.28880 36250 ft 477 kts 279°
2026-04-23 08:35 53.06571 -11.39640 36244 ft 478 kts 279°
2026-04-23 08:36 53.08040 -11.50339 36252 ft 477 kts 279°
2026-04-23 08:36 53.09493 -11.61126 36253 ft 478 kts 279°
2026-04-23 08:37 53.10950 -11.71921 36241 ft 478 kts 278°
2026-04-23 08:37 53.12388 -11.82728 36239 ft 478 kts 279°
2026-04-23 08:38 53.13823 -11.93542 36229 ft 479 kts 278°
2026-04-23 08:38 53.15249 -12.04381 36237 ft 479 kts 278°
2026-04-23 08:39 53.16659 -12.15227 36240 ft 479 kts 278°
2026-04-23 08:39 53.18073 -12.26096 36239 ft 480 kts 278°
2026-04-23 08:40 53.19464 -12.36986 36229 ft 480 kts 278°
2026-04-23 08:40 53.20862 -12.47884 36230 ft 480 kts 278°
2026-04-23 08:41 53.22226 -12.58735 36226 ft 481 kts 278°
2026-04-23 08:41 53.23606 -12.69675 36226 ft 482 kts 277°
2026-04-23 08:42 53.24966 -12.80632 36220 ft 482 kts 278°
2026-04-23 08:42 53.26323 -12.91604 36224 ft 482 kts 277°
2026-04-23 08:43 53.27669 -13.02583 36224 ft 482 kts 277°
2026-04-23 08:43 53.29002 -13.13585 36209 ft 483 kts 277°
2026-04-23 08:44 53.30337 -13.24612 36208 ft 484 kts 277°
2026-04-23 08:44 53.31650 -13.35668 36196 ft 485 kts 277°
2026-04-23 08:45 53.32969 -13.46719 36205 ft 485 kts 277°
2026-04-23 08:45 53.34254 -13.57719 36205 ft 485 kts 277°
2026-04-23 08:46 53.35552 -13.68810 36202 ft 485 kts 277°
2026-04-23 08:46 53.36829 -13.79897 36193 ft 485 kts 277°
2026-04-23 08:47 53.37891 -13.89131 36186 ft 486 kts 276°
2026-04-23 08:47 53.39151 -14.00240 36176 ft 486 kts 276°
2026-04-23 08:48 53.40406 -14.11371 36181 ft 487 kts 276°
2026-04-23 08:48 53.41656 -14.22531 36185 ft 487 kts 276°
2026-04-23 08:49 53.42886 -14.33697 36173 ft 487 kts 276°
2026-04-23 08:49 53.44121 -14.44877 36166 ft 488 kts 276°
2026-04-23 08:50 53.45329 -14.56080 36158 ft 488 kts 276°
2026-04-23 08:50 53.46545 -14.67276 36165 ft 488 kts 276°
2026-04-23 08:51 53.47727 -14.78425 36165 ft 488 kts 276°
2026-04-23 08:51 53.48922 -14.89689 36395 ft 490 kts 275°
2026-04-23 08:52 53.49508 -14.95314 36784 ft 488 kts 276°
2026-04-23 08:52 53.50118 -15.00927 36998 ft 491 kts 278°
2026-04-23 08:52 53.50852 -15.06542 37197 ft 492 kts 278°
2026-04-23 08:52 53.51505 -15.12177 37473 ft 491 kts 276°
2026-04-23 08:53 53.52124 -15.17811 37734 ft 491 kts 277°
2026-04-23 08:53 53.52821 -15.23432 37976 ft 492 kts 279°
2026-04-23 08:53 53.53549 -15.29051 38185 ft 493 kts 278°
2026-04-23 08:53 53.54211 -15.34744 38122 ft 497 kts 277°
2026-04-23 08:54 53.55520 -15.46059 38132 ft 492 kts 278°
2026-04-23 08:54 53.56874 -15.57352 38122 ft 491 kts 277°
2026-04-23 08:55 53.58159 -15.68571 38118 ft 492 kts 278°
2026-04-23 08:55 53.59485 -15.79884 38138 ft 492 kts 277°
2026-04-23 08:56 53.60768 -15.91222 38110 ft 493 kts 278°
2026-04-23 08:56 53.62066 -16.02568 38107 ft 493 kts 277°
2026-04-23 08:57 53.63336 -16.13925 38115 ft 493 kts 277°
2026-04-23 08:57 53.64606 -16.25285 38102 ft 493 kts 276°
2026-04-23 08:58 53.65863 -16.36664 38105 ft 493 kts 277°
2026-04-23 08:58 53.67102 -16.48025 38096 ft 492 kts 276°
2026-04-23 08:59 53.68343 -16.59399 38092 ft 493 kts 277°
2026-04-23 08:59 53.69548 -16.70715 38089 ft 493 kts 276°
2026-04-23 09:00 53.70773 -16.82110 38080 ft 494 kts 277°
2026-04-23 09:00 53.71963 -16.93539 38084 ft 495 kts 276°
2026-04-23 09:01 53.73175 -17.04991 38087 ft 495 kts 276°
2026-04-23 09:01 53.74342 -17.16454 38069 ft 495 kts 276°
2026-04-23 09:02 53.75533 -17.27912 38068 ft 495 kts 276°
2026-04-23 09:02 53.76677 -17.39381 38062 ft 495 kts 276°
2026-04-23 09:03 53.77847 -17.50860 38063 ft 495 kts 276°
2026-04-23 09:03 53.78971 -17.62346 38054 ft 495 kts 276°
2026-04-23 09:04 53.80106 -17.73750 38052 ft 495 kts 275°
2026-04-23 09:04 53.81214 -17.85248 38054 ft 495 kts 276°
2026-04-23 09:05 53.82330 -17.96756 38042 ft 495 kts 275°
2026-04-23 09:05 53.83422 -18.08253 38047 ft 495 kts 276°
2026-04-23 09:06 53.84510 -18.19791 38041 ft 496 kts 275°
2026-04-23 09:06 53.85589 -18.31327 38040 ft 496 kts 275°
2026-04-23 09:07 53.86649 -18.42873 38032 ft 495 kts 275°
2026-04-23 09:07 53.87706 -18.54370 38031 ft 496 kts 275°
2026-04-23 09:08 53.88740 -18.65936 38026 ft 496 kts 275°
2026-04-23 09:08 53.89787 -18.77540 38025 ft 497 kts 275°
2026-04-23 09:09 53.90800 -18.89135 38020 ft 497 kts 275°
2026-04-23 09:09 53.91815 -19.00658 38019 ft 497 kts 275°
2026-04-23 09:10 53.93313 -19.18089 38012 ft 498 kts 275°
2026-04-23 09:11 53.94290 -19.29719 38009 ft 498 kts 274°
2026-04-23 09:11 53.95274 -19.41349 38014 ft 498 kts 274°
2026-04-23 09:12 53.96228 -19.53003 38005 ft 498 kts 274°
2026-04-23 09:12 53.97189 -19.64649 37996 ft 498 kts 274°
2026-04-23 09:13 53.98116 -19.76246 38000 ft 498 kts 274°
2026-04-23 09:13 53.99055 -19.87922 37995 ft 498 kts 274°
2026-04-23 09:14 53.99969 -19.99599 37995 ft 499 kts 275°
2026-04-23 09:14 54.01084 -20.11269 37979 ft 499 kts 274°
2026-04-23 09:15 54.02061 -20.22959 37996 ft 501 kts 276°
2026-04-23 09:15 54.03192 -20.34663 37984 ft 501 kts 274°
2026-04-23 09:16 54.04167 -20.46418 37984 ft 502 kts 276°
2026-04-23 09:16 54.05264 -20.58170 37985 ft 502 kts 274°
2026-04-23 09:17 54.06224 -20.69875 37976 ft 502 kts 276°
2026-04-23 09:17 54.07285 -20.81618 37960 ft 502 kts 274°
2026-04-23 09:18 54.08238 -20.93397 37967 ft 502 kts 275°
2026-04-23 09:18 54.09266 -21.05170 37963 ft 502 kts 274°
2026-04-23 09:19 54.10206 -21.16942 37961 ft 502 kts 275°
2026-04-23 09:19 54.11201 -21.28719 37962 ft 502 kts 274°
2026-04-23 09:20 54.12126 -21.40513 37961 ft 502 kts 275°
2026-04-23 09:20 54.13091 -21.52304 37956 ft 502 kts 274°
2026-04-23 09:21 54.14001 -21.64104 37954 ft 503 kts 275°
2026-04-23 09:21 54.14937 -21.75932 37950 ft 503 kts 274°
2026-04-23 09:22 54.15833 -21.87773 37943 ft 504 kts 275°
2026-04-23 09:22 54.16735 -21.99548 37938 ft 503 kts 274°
2026-04-23 09:23 54.17614 -22.11394 37937 ft 503 kts 274°
2026-04-23 09:23 54.18489 -22.23232 37936 ft 502 kts 274°
2026-04-23 09:24 54.19351 -22.35061 37940 ft 503 kts 274°
2026-04-23 09:24 54.20198 -22.46929 37933 ft 502 kts 274°
2026-04-23 09:25 54.21041 -22.58776 37937 ft 502 kts 274°
2026-04-23 09:25 54.21858 -22.70622 37938 ft 502 kts 273°
2026-04-23 09:26 54.22683 -22.82476 37926 ft 502 kts 274°
2026-04-23 09:26 54.23473 -22.94325 37929 ft 502 kts 273°
2026-04-23 09:27 54.24271 -23.06115 37937 ft 502 kts 273°
2026-04-23 09:27 54.25038 -23.17987 37931 ft 502 kts 273°
2026-04-23 09:28 54.25818 -23.29866 37912 ft 503 kts 273°
2026-04-23 09:28 54.26564 -23.41744 37916 ft 502 kts 273°
2026-04-23 09:29 54.27318 -23.53650 37917 ft 504 kts 273°
2026-04-23 09:29 54.28047 -23.65576 37912 ft 503 kts 273°
2026-04-23 09:30 54.28773 -23.77485 37921 ft 503 kts 272°
2026-04-23 09:30 54.29482 -23.89404 37913 ft 504 kts 273°
2026-04-23 09:31 54.30176 -24.01261 37916 ft 503 kts 272°
2026-04-23 09:31 54.30866 -24.13200 37911 ft 505 kts 272°
2026-04-23 09:32 54.31540 -24.25154 37918 ft 505 kts 272°
2026-04-23 09:32 54.32209 -24.37136 37909 ft 505 kts 272°
2026-04-23 09:33 54.32860 -24.49112 37906 ft 504 kts 272°
2026-04-23 09:33 54.33506 -24.61111 37906 ft 506 kts 272°
2026-04-23 09:34 54.34132 -24.73107 37909 ft 506 kts 272°
2026-04-23 09:34 54.34756 -24.85106 37906 ft 505 kts 272°
2026-04-23 09:35 54.35353 -24.97015 37913 ft 505 kts 272°
2026-04-23 09:35 54.35952 -25.09017 37914 ft 505 kts 272°
2026-04-23 09:36 54.36532 -25.21029 37901 ft 505 kts 271°
2026-04-23 09:36 54.37106 -25.33041 37912 ft 505 kts 271°
2026-04-23 09:37 54.37664 -25.45067 37913 ft 506 kts 271°
2026-04-23 09:37 54.38129 -25.55078 37884 ft 506 kts 271°
2026-04-23 09:38 54.38719 -25.69080 37902 ft 506 kts 271°
2026-04-23 09:38 54.39192 -25.79110 37898 ft 507 kts 271°
2026-04-23 09:39 54.39702 -25.91168 37894 ft 506 kts 270°
2026-04-23 09:39 54.40178 -26.03212 37893 ft 506 kts 272°
2026-04-23 09:40 54.40711 -26.15274 37898 ft 506 kts 271°
2026-04-23 09:40 54.41144 -26.27332 37894 ft 506 kts 271°
2026-04-23 09:41 54.41647 -26.39385 37897 ft 506 kts 271°
2026-04-23 09:41 54.42085 -26.51455 37894 ft 506 kts 271°
2026-04-23 09:42 54.42535 -26.63514 37900 ft 506 kts 271°
2026-04-23 09:42 54.42944 -26.75528 37900 ft 506 kts 270°
2026-04-23 09:43 54.43382 -26.87599 37909 ft 506 kts 271°
2026-04-23 09:43 54.43785 -26.99689 37900 ft 507 kts 270°
2026-04-23 09:44 54.44162 -27.11795 37909 ft 507 kts 272°
2026-04-23 09:44 54.44579 -27.23908 37919 ft 507 kts 271°
2026-04-23 09:45 54.44923 -27.36023 37915 ft 507 kts 271°
2026-04-23 09:45 54.45304 -27.48129 37907 ft 508 kts 271°
2026-04-23 09:46 54.45588 -27.60260 37905 ft 508 kts 272°
2026-04-23 09:46 54.46020 -27.72397 37912 ft 508 kts 271°
2026-04-23 09:47 54.46250 -27.84455 37919 ft 507 kts 271°
2026-04-23 09:47 54.46665 -27.96583 37915 ft 508 kts 271°
2026-04-23 09:48 54.46841 -28.08746 37915 ft 509 kts 271°
2026-04-23 09:48 54.47226 -28.20895 37916 ft 508 kts 271°
2026-04-23 09:49 54.47433 -28.33052 37922 ft 509 kts 271°
2026-04-23 09:49 54.47749 -28.45225 37931 ft 509 kts 271°
2026-04-23 09:50 54.47962 -28.57329 37926 ft 509 kts 270°
2026-04-23 09:50 54.48246 -28.69490 37930 ft 509 kts 272°
2026-04-23 09:51 54.48406 -28.81657 37929 ft 509 kts 270°
2026-04-23 09:51 54.48672 -28.93825 37935 ft 509 kts 272°
2026-04-23 09:52 54.48847 -29.05992 37939 ft 509 kts 270°
2026-04-23 09:52 54.49034 -29.18147 37937 ft 509 kts 270°
2026-04-23 09:53 54.49244 -29.30314 37942 ft 509 kts 270°
2026-04-23 09:53 54.49361 -29.42491 37950 ft 509 kts 270°
2026-04-23 09:54 54.49557 -29.54663 37946 ft 509 kts 270°
2026-04-23 09:54 54.49679 -29.66851 37959 ft 509 kts 270°
2026-04-23 09:55 54.49807 -29.79041 37954 ft 509 kts 270°
2026-04-23 09:55 54.49931 -29.91155 37965 ft 509 kts 270°
2026-04-23 09:56 54.50133 -30.03336 37970 ft 509 kts 275°
2026-04-23 09:56 54.50661 -30.15493 37967 ft 509 kts 272°
2026-04-23 09:57 54.51072 -30.27662 37967 ft 509 kts 275°
2026-04-23 09:57 54.51631 -30.39817 37977 ft 509 kts 273°
2026-04-23 09:58 54.51991 -30.51988 37978 ft 509 kts 274°
2026-04-23 09:58 54.52521 -30.64130 37978 ft 508 kts 273°
2026-04-23 09:59 54.52861 -30.76211 37980 ft 508 kts 274°
2026-04-23 09:59 54.53379 -30.88349 37984 ft 508 kts 272°
2026-04-23 10:00 54.53673 -31.00502 37992 ft 508 kts 274°
2026-04-23 10:00 54.54221 -31.12592 37806 ft 499 kts 275°
2026-04-23 10:00 54.54285 -31.18482 37917 ft 487 kts 274°
2026-04-23 10:01 54.54394 -31.24318 38002 ft 489 kts 277°
2026-04-23 10:01 54.54698 -31.30199 38170 ft 497 kts 276°
2026-04-23 10:01 54.54965 -31.36179 38026 ft 504 kts 273°
2026-04-23 10:02 54.55111 -31.48239 38004 ft 504 kts 272°
2026-04-23 10:02 54.55643 -31.60321 38008 ft 506 kts 274°
2026-04-23 10:03 54.55841 -31.72454 38002 ft 506 kts 272°
2026-04-23 10:03 54.56249 -31.84486 38010 ft 506 kts 275°
2026-04-23 10:04 54.56512 -31.96587 38014 ft 505 kts 272°
2026-04-23 10:04 54.56836 -32.08678 38024 ft 505 kts 274°
2026-04-23 10:05 54.57096 -32.20745 38017 ft 504 kts 272°
2026-04-23 10:05 54.57364 -32.32813 38029 ft 503 kts 274°
2026-04-23 10:06 54.57647 -32.44857 38031 ft 503 kts 272°
2026-04-23 10:06 54.57872 -32.56907 38027 ft 502 kts 273°
2026-04-23 10:07 54.58143 -32.68853 38041 ft 501 kts 272°
2026-04-23 10:07 54.58306 -32.80881 38037 ft 501 kts 273°
2026-04-23 10:08 54.58587 -32.92882 38031 ft 501 kts 273°
2026-04-23 10:08 54.58729 -33.04880 38046 ft 500 kts 272°
2026-04-23 10:09 54.59039 -33.22842 38044 ft 499 kts 272°
2026-04-23 10:09 54.59186 -33.34807 38067 ft 499 kts 273°
2026-04-23 10:10 54.59360 -33.46785 38048 ft 499 kts 272°
2026-04-23 10:10 54.59489 -33.58660 38064 ft 498 kts 274°
2026-04-23 10:11 54.59642 -33.70593 38056 ft 498 kts 272°
2026-04-23 10:11 54.59731 -33.82533 38063 ft 497 kts 273°
2026-04-23 10:12 54.59891 -33.94449 38058 ft 497 kts 272°
2026-04-23 10:12 54.59929 -34.06377 38076 ft 497 kts 272°
2026-04-23 10:13 54.60071 -34.18300 38073 ft 497 kts 272°
2026-04-23 10:13 54.60095 -34.30221 38070 ft 496 kts 273°
2026-04-23 10:14 54.60209 -34.42054 38067 ft 496 kts 272°
2026-04-23 10:14 54.60213 -34.53953 38072 ft 496 kts 272°
2026-04-23 10:15 54.60294 -34.65842 38091 ft 496 kts 271°
2026-04-23 10:15 54.60285 -34.77738 38076 ft 495 kts 272°
2026-04-23 10:16 54.60332 -34.89610 38075 ft 495 kts 271°
2026-04-23 10:16 54.60310 -35.01493 38095 ft 495 kts 272°
2026-04-23 10:17 54.60325 -35.13361 38088 ft 495 kts 271°
2026-04-23 10:17 54.60288 -35.25218 38088 ft 494 kts 272°
2026-04-23 10:18 54.60271 -35.37071 38092 ft 494 kts 271°
2026-04-23 10:18 54.60220 -35.48918 38108 ft 493 kts 272°
2026-04-23 10:19 54.60172 -35.60667 38097 ft 493 kts 271°
2026-04-23 10:19 54.60106 -35.72481 38109 ft 493 kts 272°
2026-04-23 10:20 54.60027 -35.84295 38101 ft 492 kts 271°
2026-04-23 10:20 54.59945 -35.96103 38122 ft 492 kts 271°
2026-04-23 10:21 54.59837 -36.07920 38104 ft 492 kts 271°
2026-04-23 10:21 54.59737 -36.19744 38122 ft 492 kts 271°
2026-04-23 10:22 54.59602 -36.31560 38109 ft 492 kts 271°
2026-04-23 10:22 54.59483 -36.43275 38119 ft 492 kts 271°
2026-04-23 10:23 54.59325 -36.55074 38109 ft 491 kts 271°
2026-04-23 10:23 54.59181 -36.66840 38132 ft 491 kts 271°
2026-04-23 10:24 54.59002 -36.78617 38126 ft 491 kts 271°
2026-04-23 10:24 54.58865 -36.88402 38132 ft 490 kts 271°
2026-04-23 10:25 54.58666 -37.00145 38132 ft 490 kts 271°
2026-04-23 10:25 54.58476 -37.11892 38136 ft 490 kts 271°
2026-04-23 10:26 54.58257 -37.23640 38139 ft 490 kts 271°
2026-04-23 10:26 54.58041 -37.35365 38132 ft 489 kts 270°
2026-04-23 10:27 54.57806 -37.46991 38144 ft 488 kts 271°
2026-04-23 10:27 54.57563 -37.58703 38146 ft 488 kts 270°
2026-04-23 10:28 54.57309 -37.70414 38140 ft 488 kts 270°
2026-04-23 10:28 54.57039 -37.82107 38152 ft 488 kts 270°
2026-04-23 10:29 54.56766 -37.93802 38156 ft 489 kts 270°
2026-04-23 10:29 54.56469 -38.05508 38152 ft 489 kts 270°
2026-04-23 10:30 54.56178 -38.17198 38152 ft 488 kts 270°
2026-04-23 10:30 54.55859 -38.28805 38151 ft 488 kts 270°
2026-04-23 10:31 54.55545 -38.40494 38150 ft 488 kts 270°
2026-04-23 10:31 54.55203 -38.52141 38162 ft 487 kts 270°
2026-04-23 10:32 54.54866 -38.63799 38161 ft 486 kts 270°
2026-04-23 10:32 54.54507 -38.75422 38163 ft 486 kts 270°
2026-04-23 10:33 54.54143 -38.87042 38160 ft 485 kts 270°
2026-04-23 10:33 54.53767 -38.98646 38162 ft 485 kts 270°
2026-04-23 10:34 54.53379 -39.10166 38177 ft 485 kts 269°
2026-04-23 10:34 54.52986 -39.21760 38157 ft 485 kts 270°
2026-04-23 10:35 54.52569 -39.33339 38168 ft 484 kts 269°
2026-04-23 10:35 54.52158 -39.44921 38170 ft 484 kts 270°
2026-04-23 10:36 54.51717 -39.56478 38158 ft 484 kts 269°
2026-04-23 10:36 54.51287 -39.68027 38173 ft 483 kts 269°
2026-04-23 10:37 54.50824 -39.79565 38173 ft 483 kts 269°
2026-04-23 10:37 54.50371 -39.91093 38160 ft 483 kts 269°
2026-04-23 10:38 54.49674 -40.02502 38180 ft 486 kts 259°
2026-04-23 10:38 54.47871 -40.13767 38192 ft 488 kts 258°
2026-04-23 10:39 54.46245 -40.25095 38171 ft 488 kts 259°
2026-04-23 10:39 54.44435 -40.36336 38175 ft 488 kts 258°
2026-04-23 10:40 54.42770 -40.47625 38183 ft 487 kts 259°
2026-04-23 10:40 54.40957 -40.58855 38170 ft 487 kts 258°
2026-04-23 10:41 54.39259 -40.70098 38165 ft 487 kts 259°
2026-04-23 10:41 54.37444 -40.81283 38167 ft 487 kts 258°
2026-04-23 10:42 54.35725 -40.92424 38178 ft 486 kts 258°
2026-04-23 10:42 54.33903 -41.03578 38181 ft 486 kts 258°
2026-04-23 10:43 54.32146 -41.14749 38179 ft 485 kts 258°
2026-04-23 10:43 54.30312 -41.25879 38175 ft 484 kts 258°
2026-04-23 10:44 54.28533 -41.36997 38172 ft 484 kts 258°
2026-04-23 10:44 54.26695 -41.48050 38173 ft 483 kts 258°
2026-04-23 10:45 54.24893 -41.59116 38173 ft 483 kts 257°
2026-04-23 10:45 54.23045 -41.70137 38169 ft 482 kts 258°
2026-04-23 10:46 54.21220 -41.81153 38171 ft 481 kts 257°
2026-04-23 10:46 54.19361 -41.92148 38168 ft 481 kts 257°
2026-04-23 10:47 54.17522 -42.03058 38167 ft 481 kts 257°
2026-04-23 10:47 54.15654 -42.14013 38168 ft 480 kts 257°
2026-04-23 10:48 54.13781 -42.24952 38172 ft 480 kts 257°
2026-04-23 10:48 54.11899 -42.35892 38176 ft 479 kts 257°
2026-04-23 10:49 54.10002 -42.46796 38168 ft 479 kts 256°
2026-04-23 10:49 54.08122 -42.57622 38164 ft 479 kts 256°
2026-04-23 10:50 54.06209 -42.68467 38164 ft 478 kts 256°
2026-04-23 10:50 54.04310 -42.79282 38163 ft 476 kts 256°
2026-04-23 10:51 54.02385 -42.90057 38171 ft 476 kts 256°
2026-04-23 10:51 54.00471 -43.00828 38161 ft 475 kts 256°
2026-04-23 10:52 53.98534 -43.11558 38151 ft 474 kts 256°
2026-04-23 10:52 53.96605 -43.22259 38164 ft 474 kts 255°
2026-04-23 10:53 53.94669 -43.32888 38159 ft 474 kts 256°
2026-04-23 10:53 53.92717 -43.43562 38145 ft 473 kts 255°
2026-04-23 10:54 53.90759 -43.54222 38127 ft 473 kts 255°
2026-04-23 10:54 53.88788 -43.64844 38147 ft 472 kts 255°
2026-04-23 10:55 53.86821 -43.75456 38144 ft 471 kts 255°
2026-04-23 10:55 53.84834 -43.86023 38155 ft 470 kts 255°
2026-04-23 10:56 53.82858 -43.96573 38141 ft 469 kts 255°
2026-04-23 10:56 53.80862 -44.07080 38152 ft 469 kts 255°
2026-04-23 10:57 53.78886 -44.17497 38149 ft 468 kts 255°
2026-04-23 10:57 53.76881 -44.27946 38147 ft 466 kts 255°
2026-04-23 10:58 53.74885 -44.38348 38140 ft 465 kts 254°
2026-04-23 10:58 53.72875 -44.48718 38139 ft 463 kts 254°
2026-04-23 10:59 53.70882 -44.59023 38133 ft 461 kts 254°
2026-04-23 10:59 53.68843 -44.69281 38147 ft 460 kts 253°
2026-04-23 11:00 53.66895 -44.79455 38126 ft 458 kts 255°
2026-04-23 11:00 53.64833 -44.89625 38146 ft 457 kts 253°
2026-04-23 11:01 53.62851 -44.99820 38161 ft 457 kts 255°
2026-04-23 11:01 53.60774 -45.09957 38133 ft 458 kts 252°
2026-04-23 11:02 53.58781 -45.20119 38148 ft 456 kts 254°
2026-04-23 11:02 53.56725 -45.30242 38131 ft 457 kts 252°
2026-04-23 11:03 53.54672 -45.40338 38138 ft 456 kts 253°
2026-04-23 11:03 53.52617 -45.50436 38119 ft 457 kts 253°
2026-04-23 11:04 53.50578 -45.60448 38141 ft 455 kts 252°
2026-04-23 11:04 53.48476 -45.70505 38110 ft 456 kts 252°
2026-04-23 11:05 53.46446 -45.80566 38133 ft 455 kts 252°
2026-04-23 11:05 53.44292 -45.90586 38105 ft 457 kts 251°
2026-04-23 11:06 53.41208 -46.05684 38115 ft 457 kts 251°
2026-04-23 11:07 53.39027 -46.15692 38101 ft 456 kts 252°
2026-04-23 11:07 53.36956 -46.25735 38099 ft 456 kts 251°
2026-04-23 11:08 53.34790 -46.35726 38106 ft 455 kts 251°
2026-04-23 11:08 53.32695 -46.45721 38101 ft 456 kts 251°
2026-04-23 11:09 53.30538 -46.55612 38090 ft 455 kts 251°
2026-04-23 11:09 53.28400 -46.65573 38092 ft 455 kts 250°
2026-04-23 11:10 53.26248 -46.75526 38078 ft 455 kts 250°
2026-04-23 11:10 53.24080 -46.85460 38077 ft 456 kts 251°
2026-04-23 11:11 53.21889 -46.95382 38097 ft 455 kts 250°
2026-04-23 11:11 53.19731 -47.05327 38081 ft 456 kts 251°
2026-04-23 11:12 53.17530 -47.15171 38073 ft 456 kts 250°
2026-04-23 11:12 53.15707 -47.23428 38073 ft 457 kts 250°
2026-04-23 11:13 53.13489 -47.33388 38067 ft 458 kts 250°
2026-04-23 11:13 53.11273 -47.43342 38062 ft 459 kts 250°
2026-04-23 11:14 53.08985 -47.53269 38067 ft 460 kts 250°
2026-04-23 11:14 53.06786 -47.63274 38063 ft 461 kts 249°
2026-04-23 11:15 53.04470 -47.73219 38060 ft 461 kts 250°
2026-04-23 11:15 53.02250 -47.83143 38053 ft 461 kts 249°
2026-04-23 11:16 52.99932 -47.93075 38057 ft 461 kts 249°
2026-04-23 11:16 52.97667 -48.03037 38044 ft 461 kts 248°
2026-04-23 11:17 52.95343 -48.12956 38044 ft 461 kts 249°
2026-04-23 11:17 52.93058 -48.22886 38034 ft 461 kts 248°
2026-04-23 11:18 52.90713 -48.32790 38026 ft 462 kts 248°
2026-04-23 11:18 52.88401 -48.42722 38027 ft 463 kts 247°
2026-04-23 11:19 52.86062 -48.52664 38038 ft 463 kts 247°
2026-04-23 11:19 52.83693 -48.62517 38030 ft 464 kts 247°
2026-04-23 11:20 52.81367 -48.72482 38019 ft 465 kts 246°
2026-04-23 11:20 52.78946 -48.82402 38016 ft 465 kts 246°
2026-04-23 11:21 52.76587 -48.92364 38002 ft 466 kts 246°
2026-04-23 11:21 52.74155 -49.02279 37999 ft 466 kts 246°
2026-04-23 11:22 52.71785 -49.12256 37998 ft 467 kts 246°
2026-04-23 11:22 52.69321 -49.22178 37993 ft 467 kts 246°
2026-04-23 11:23 52.66927 -49.32074 37979 ft 468 kts 245°
2026-04-23 11:23 52.64467 -49.42007 37991 ft 468 kts 245°
2026-04-23 11:24 52.62031 -49.51957 37980 ft 468 kts 245°
2026-04-23 11:24 52.59559 -49.61860 37973 ft 468 kts 244°
2026-04-23 11:25 52.57091 -49.71770 37978 ft 468 kts 246°
2026-04-23 11:25 52.54640 -49.81603 37967 ft 468 kts 244°
2026-04-23 11:26 52.52148 -49.91484 37966 ft 467 kts 245°
2026-04-23 11:26 52.49664 -50.01331 37957 ft 467 kts 244°
2026-04-23 11:27 52.47275 -50.11262 37962 ft 468 kts 246°
2026-04-23 11:27 52.44846 -50.21153 37954 ft 467 kts 244°
2026-04-23 11:28 52.42436 -50.31063 37947 ft 468 kts 246°
2026-04-23 11:28 52.39987 -50.40937 37950 ft 468 kts 245°
2026-04-23 11:29 52.37560 -50.50834 37938 ft 468 kts 245°
2026-04-23 11:29 52.35109 -50.60625 37934 ft 468 kts 244°
2026-04-23 11:30 52.32667 -50.70500 37930 ft 468 kts 245°
2026-04-23 11:30 52.30181 -50.80333 37923 ft 468 kts 244°
2026-04-23 11:31 52.27721 -50.90188 38121 ft 471 kts 246°
2026-04-23 11:31 52.26460 -50.95189 37968 ft 481 kts 246°
2026-04-23 11:31 52.25160 -51.00239 37889 ft 483 kts 246°
2026-04-23 11:32 52.22587 -51.10421 37889 ft 489 kts 246°
2026-04-23 11:32 52.19973 -51.20672 37882 ft 490 kts 245°
2026-04-23 11:33 52.17363 -51.30857 37875 ft 490 kts 245°
2026-04-23 11:33 52.14720 -51.41116 37873 ft 491 kts 245°
2026-04-23 11:34 52.12072 -51.51376 37868 ft 492 kts 245°
2026-04-23 11:34 52.09403 -51.61623 37861 ft 492 kts 245°
2026-04-23 11:35 52.06737 -51.71875 37856 ft 492 kts 244°
2026-04-23 11:35 52.04044 -51.82113 37851 ft 493 kts 244°
2026-04-23 11:36 52.01352 -51.92371 37846 ft 494 kts 244°
2026-04-23 11:36 51.98635 -52.02614 37812 ft 495 kts 244°
2026-04-23 11:37 51.95934 -52.12805 37810 ft 495 kts 243°
2026-04-23 11:37 51.93192 -52.23062 37817 ft 496 kts 243°
2026-04-23 11:38 51.90442 -52.33325 37820 ft 496 kts 243°
2026-04-23 11:38 51.87682 -52.43586 37813 ft 497 kts 243°
2026-04-23 11:39 51.84906 -52.53826 37820 ft 497 kts 242°
2026-04-23 11:39 51.82133 -52.64069 37802 ft 497 kts 242°
2026-04-23 11:40 51.79334 -52.74288 37785 ft 497 kts 242°
2026-04-23 11:40 51.76544 -52.84506 37784 ft 497 kts 242°
2026-04-23 11:41 51.73728 -52.94697 37778 ft 497 kts 242°
2026-04-23 11:41 51.70938 -53.04823 37776 ft 496 kts 241°
2026-04-23 11:42 51.68113 -53.14967 37775 ft 495 kts 241°
2026-04-23 11:42 51.65293 -53.25103 37772 ft 495 kts 241°
2026-04-23 11:43 51.62457 -53.35211 37755 ft 496 kts 241°
2026-04-23 11:43 51.59615 -53.45325 37731 ft 495 kts 240°
2026-04-23 11:44 51.56769 -53.55393 37761 ft 494 kts 240°
2026-04-23 11:44 51.53919 -53.65437 37742 ft 493 kts 240°
2026-04-23 11:45 51.51068 -53.75447 37733 ft 492 kts 240°
2026-04-23 11:45 51.48199 -53.85406 37734 ft 489 kts 237°
2026-04-23 11:46 51.44954 -53.94948 37718 ft 488 kts 236°
2026-04-23 11:46 51.41796 -54.04490 37723 ft 486 kts 236°
2026-04-23 11:47 51.38529 -54.13968 37724 ft 486 kts 236°
2026-04-23 11:47 51.35331 -54.23511 37705 ft 485 kts 235°
2026-04-23 11:48 51.32067 -54.32946 37709 ft 485 kts 236°
2026-04-23 11:48 51.28852 -54.42428 37701 ft 485 kts 235°
2026-04-23 11:49 51.25579 -54.51855 37691 ft 486 kts 236°
2026-04-23 11:49 51.22335 -54.61320 37681 ft 487 kts 235°
2026-04-23 11:50 51.19040 -54.70766 37685 ft 488 kts 235°
2026-04-23 11:50 51.15760 -54.80236 37693 ft 488 kts 235°
2026-04-23 11:51 51.12451 -54.89682 37681 ft 489 kts 235°
2026-04-23 11:51 51.09140 -54.99145 37677 ft 489 kts 234°
2026-04-23 11:52 51.05805 -55.08614 37674 ft 491 kts 235°
2026-04-23 11:52 51.02492 -55.17990 37677 ft 490 kts 234°
2026-04-23 11:53 50.99150 -55.27432 37675 ft 490 kts 235°
2026-04-23 11:53 50.95799 -55.36828 37663 ft 489 kts 234°
2026-04-23 11:54 50.92447 -55.46242 37681 ft 489 kts 234°
2026-04-23 11:54 50.89077 -55.55611 37654 ft 490 kts 234°
2026-04-23 11:55 50.85711 -55.65002 37675 ft 490 kts 234°
2026-04-23 11:55 50.82315 -55.74374 37674 ft 493 kts 234°
2026-04-23 11:56 50.78872 -55.83892 37683 ft 505 kts 234°
2026-04-23 11:56 50.75356 -55.93553 37682 ft 507 kts 234°
2026-04-23 11:57 50.71858 -56.03135 37694 ft 507 kts 234°
2026-04-23 11:57 50.68329 -56.12764 37697 ft 507 kts 234°
2026-04-23 11:58 50.64794 -56.22365 37699 ft 506 kts 234°
2026-04-23 11:58 50.61253 -56.31963 37706 ft 507 kts 234°
2026-04-23 11:59 50.57703 -56.41531 37715 ft 506 kts 234°
2026-04-23 11:59 50.54744 -56.49496 37723 ft 506 kts 234°
2026-04-23 12:00 50.51180 -56.59042 37731 ft 506 kts 234°
2026-04-23 12:00 50.47609 -56.68575 37734 ft 506 kts 234°
2026-04-23 12:01 50.44028 -56.78103 37741 ft 506 kts 234°
2026-04-23 12:01 50.40442 -56.87602 37746 ft 506 kts 233°
2026-04-23 12:02 50.36852 -56.97085 37758 ft 506 kts 233°
2026-04-23 12:02 50.33254 -57.06549 37763 ft 506 kts 233°
2026-04-23 12:03 50.29650 -57.15997 37773 ft 506 kts 233°
2026-04-23 12:03 50.26054 -57.25384 37780 ft 506 kts 233°
2026-04-23 12:04 50.22409 -57.34873 37787 ft 506 kts 233°
2026-04-23 12:04 50.18800 -57.44227 37783 ft 506 kts 233°
2026-04-23 12:05 50.15164 -57.53626 37780 ft 506 kts 233°
2026-04-23 12:05 50.11518 -57.63008 37787 ft 506 kts 233°
2026-04-23 12:06 50.07866 -57.72377 37798 ft 506 kts 233°
2026-04-23 12:06 50.02372 -57.86406 37791 ft 506 kts 233°
2026-04-23 12:07 49.98695 -57.95753 37800 ft 506 kts 233°
2026-04-23 12:07 49.95034 -58.05027 37801 ft 507 kts 232°
2026-04-23 12:08 49.91335 -58.14365 37820 ft 508 kts 232°
2026-04-23 12:08 49.87621 -58.23702 37816 ft 509 kts 232°
2026-04-23 12:09 49.83898 -58.33037 37819 ft 509 kts 232°
2026-04-23 12:09 49.80160 -58.42368 37819 ft 510 kts 232°
2026-04-23 12:10 49.76409 -58.51706 37818 ft 511 kts 232°
2026-04-23 12:10 49.72646 -58.61038 37816 ft 512 kts 232°
2026-04-23 12:11 49.68868 -58.70368 37834 ft 512 kts 232°
2026-04-23 12:11 49.65085 -58.79690 37831 ft 512 kts 232°
2026-04-23 12:12 49.61291 -58.88992 37837 ft 512 kts 232°
2026-04-23 12:12 49.57489 -58.98294 37833 ft 513 kts 232°
2026-04-23 12:13 49.53667 -59.07599 37829 ft 514 kts 232°
2026-04-23 12:13 49.49866 -59.16833 37838 ft 514 kts 232°
2026-04-23 12:14 49.46029 -59.26108 37849 ft 514 kts 232°
2026-04-23 12:14 49.42187 -59.35378 37848 ft 514 kts 232°
2026-04-23 12:15 49.38326 -59.44649 37861 ft 515 kts 232°
2026-04-23 12:15 49.34459 -59.53910 37854 ft 515 kts 232°
2026-04-23 12:16 49.30579 -59.63167 37854 ft 516 kts 232°
2026-04-23 12:16 49.26690 -59.72410 37860 ft 516 kts 232°
2026-04-23 12:17 49.22796 -59.81641 37864 ft 516 kts 232°
2026-04-23 12:17 49.18912 -59.90808 37858 ft 516 kts 232°
2026-04-23 12:18 49.14996 -60.00027 37867 ft 517 kts 232°
2026-04-23 12:18 49.11070 -60.09228 37871 ft 517 kts 232°
2026-04-23 12:19 49.07137 -60.18423 37872 ft 517 kts 232°
2026-04-23 12:19 49.03198 -60.27594 37879 ft 517 kts 232°
2026-04-23 12:20 48.99248 -60.36761 37889 ft 517 kts 232°
2026-04-23 12:20 48.95322 -60.45843 37888 ft 516 kts 232°
2026-04-23 12:21 48.91365 -60.54963 37891 ft 516 kts 232°
2026-04-23 12:21 48.87400 -60.64072 37889 ft 516 kts 233°
2026-04-23 12:22 48.83431 -60.73159 37897 ft 516 kts 233°
2026-04-23 12:22 48.79453 -60.82236 37893 ft 516 kts 233°
2026-04-23 12:23 48.75478 -60.91273 37912 ft 515 kts 233°
2026-04-23 12:23 48.71498 -61.00296 37909 ft 515 kts 233°
2026-04-23 12:24 48.67538 -61.09240 37905 ft 514 kts 233°
2026-04-23 12:24 48.63547 -61.18224 37912 ft 514 kts 233°
2026-04-23 12:25 48.59558 -61.27180 37918 ft 513 kts 233°
2026-04-23 12:25 48.55561 -61.36114 37914 ft 513 kts 233°
2026-04-23 12:26 48.51566 -61.45025 37916 ft 512 kts 233°
2026-04-23 12:26 48.47564 -61.53910 37927 ft 512 kts 233°
2026-04-23 12:27 48.43561 -61.62781 37924 ft 512 kts 233°
2026-04-23 12:27 48.39547 -61.71637 37927 ft 511 kts 233°
2026-04-23 12:28 48.35531 -61.80473 37926 ft 512 kts 233°
2026-04-23 12:28 48.31536 -61.89237 37928 ft 511 kts 233°
2026-04-23 12:29 48.27514 -61.98023 37939 ft 510 kts 233°
2026-04-23 12:29 48.23486 -62.06805 37939 ft 510 kts 233°
2026-04-23 12:30 48.19456 -62.15553 37933 ft 509 kts 233°
2026-04-23 12:30 48.15428 -62.24275 37946 ft 508 kts 233°
2026-04-23 12:31 48.11391 -62.32985 37943 ft 509 kts 233°
2026-04-23 12:31 48.07377 -62.41621 37937 ft 508 kts 233°
2026-04-23 12:32 48.03336 -62.50285 37956 ft 508 kts 233°
2026-04-23 12:32 47.99290 -62.58931 37950 ft 507 kts 233°
2026-04-23 12:33 47.95213 -62.67620 37954 ft 507 kts 233°
2026-04-23 12:33 47.91177 -62.76187 37939 ft 508 kts 233°
2026-04-23 12:34 47.87115 -62.84794 37945 ft 507 kts 233°
2026-04-23 12:34 47.83047 -62.93374 37941 ft 507 kts 233°
2026-04-23 12:35 47.78978 -63.01938 37940 ft 507 kts 233°
2026-04-23 12:35 47.74903 -63.10486 37968 ft 506 kts 233°
2026-04-23 12:36 47.70825 -63.19007 37960 ft 506 kts 233°
2026-04-23 12:36 47.66749 -63.27512 37951 ft 505 kts 233°
2026-04-23 12:37 47.62665 -63.35989 37957 ft 505 kts 233°
2026-04-23 12:37 47.58580 -63.44458 37954 ft 505 kts 233°
2026-04-23 12:38 47.54489 -63.52901 37966 ft 505 kts 234°
2026-04-23 12:38 47.50416 -63.61288 37962 ft 504 kts 233°
2026-04-23 12:39 47.46319 -63.69701 37967 ft 504 kts 234°
2026-04-23 12:39 47.42209 -63.78098 37964 ft 504 kts 234°
2026-04-23 12:40 47.38106 -63.86487 37956 ft 503 kts 234°
2026-04-23 12:40 47.33992 -63.94834 37957 ft 503 kts 234°
2026-04-23 12:41 47.29909 -64.03135 37959 ft 504 kts 233°
2026-04-23 12:41 47.25778 -64.11466 37964 ft 503 kts 234°
2026-04-23 12:42 47.21650 -64.19799 37962 ft 503 kts 233°
2026-04-23 12:42 47.17515 -64.28100 37953 ft 503 kts 234°
2026-04-23 12:43 47.13380 -64.36386 37957 ft 503 kts 233°
2026-04-23 12:43 47.09237 -64.44668 37960 ft 503 kts 234°
2026-04-23 12:44 47.05084 -64.52924 37953 ft 503 kts 234°
2026-04-23 12:44 47.00935 -64.61181 37956 ft 503 kts 234°
2026-04-23 12:45 46.96798 -64.69347 37955 ft 503 kts 234°
2026-04-23 12:45 46.92645 -64.77567 37963 ft 502 kts 234°
2026-04-23 12:46 46.88470 -64.85760 37961 ft 502 kts 234°
2026-04-23 12:46 46.84310 -64.93943 37961 ft 501 kts 234°
2026-04-23 12:47 46.80133 -65.02107 37949 ft 501 kts 234°
2026-04-23 12:47 46.75951 -65.10246 37961 ft 501 kts 233°
2026-04-23 12:48 46.72483 -65.17016 37982 ft 501 kts 234°
2026-04-23 12:48 46.68290 -65.25134 37960 ft 501 kts 234°
2026-04-23 12:49 46.64105 -65.33252 37955 ft 501 kts 234°
2026-04-23 12:49 46.59904 -65.41329 37959 ft 500 kts 234°
2026-04-23 12:50 46.55719 -65.49407 37948 ft 500 kts 234°
2026-04-23 12:50 46.51534 -65.57404 37958 ft 500 kts 234°
2026-04-23 12:51 46.47340 -65.65450 37953 ft 500 kts 234°
2026-04-23 12:51 46.43114 -65.73484 37951 ft 500 kts 234°
2026-04-23 12:52 46.38904 -65.81507 37947 ft 500 kts 234°
2026-04-23 12:52 46.34674 -65.89512 37962 ft 500 kts 234°
2026-04-23 12:53 46.30449 -65.97507 37959 ft 500 kts 234°
2026-04-23 12:53 46.26221 -66.05474 37965 ft 500 kts 234°
2026-04-23 12:54 46.21982 -66.13438 37960 ft 500 kts 234°
2026-04-23 12:54 46.17745 -66.21387 37964 ft 500 kts 234°
2026-04-23 12:55 46.13517 -66.29279 37961 ft 500 kts 234°
2026-04-23 12:55 46.09239 -66.37264 37955 ft 500 kts 234°
2026-04-23 12:56 46.04975 -66.45173 37955 ft 499 kts 234°
2026-04-23 12:56 46.00747 -66.53020 37959 ft 499 kts 234°
2026-04-23 12:57 45.96477 -66.60902 37960 ft 499 kts 234°
2026-04-23 12:57 45.92206 -66.68779 37957 ft 499 kts 234°
2026-04-23 12:58 45.87929 -66.76637 37957 ft 499 kts 234°
2026-04-23 12:58 45.83646 -66.84483 37945 ft 499 kts 234°
2026-04-23 12:59 45.79360 -66.92319 37948 ft 499 kts 234°
2026-04-23 12:59 45.75066 -67.00138 37941 ft 499 kts 234°
2026-04-23 13:00 45.70774 -67.07943 37947 ft 499 kts 234°
2026-04-23 13:00 45.66495 -67.15690 37938 ft 499 kts 234°
2026-04-23 13:01 45.62190 -67.23477 37943 ft 499 kts 234°
2026-04-23 13:01 45.57876 -67.31248 37938 ft 499 kts 234°
2026-04-23 13:02 45.53561 -67.39003 37940 ft 499 kts 234°
2026-04-23 13:02 45.49239 -67.46754 37936 ft 499 kts 234°
2026-04-23 13:03 45.44911 -67.54481 37940 ft 499 kts 234°
2026-04-23 13:03 45.40582 -67.62208 37935 ft 499 kts 234°
2026-04-23 13:04 45.36239 -67.69917 37934 ft 498 kts 234°
2026-04-23 13:04 45.31751 -67.77446 37936 ft 500 kts 231°
2026-04-23 13:05 45.27162 -67.84782 37929 ft 500 kts 232°
2026-04-23 13:05 45.22517 -67.92135 37937 ft 500 kts 231°
2026-04-23 13:06 45.15571 -68.03161 37934 ft 499 kts 232°
2026-04-23 13:07 45.10901 -68.10451 37931 ft 499 kts 232°
2026-04-23 13:07 45.06279 -68.17772 37931 ft 499 kts 232°
2026-04-23 13:08 45.01614 -68.25037 37931 ft 498 kts 232°
2026-04-23 13:08 44.96980 -68.32320 37930 ft 499 kts 232°
2026-04-23 13:09 44.92313 -68.39566 37933 ft 498 kts 232°
2026-04-23 13:09 44.87664 -68.46821 37923 ft 499 kts 232°
2026-04-23 13:10 44.82995 -68.54048 37920 ft 498 kts 232°
2026-04-23 13:10 44.78332 -68.61271 37916 ft 498 kts 232°
2026-04-23 13:11 44.73668 -68.68463 37930 ft 497 kts 232°
2026-04-23 13:11 44.69002 -68.75647 37924 ft 496 kts 232°
2026-04-23 13:12 44.64373 -68.82757 37924 ft 496 kts 232°
2026-04-23 13:12 44.59710 -68.89889 37923 ft 495 kts 232°
2026-04-23 13:13 44.55058 -68.97006 37926 ft 495 kts 232°
2026-04-23 13:13 44.50393 -69.04102 37926 ft 495 kts 232°
2026-04-23 13:14 44.45735 -69.11194 37926 ft 494 kts 232°
2026-04-23 13:14 44.41062 -69.18263 37927 ft 494 kts 232°
2026-04-23 13:15 44.36408 -69.25312 37922 ft 493 kts 232°
2026-04-23 13:15 44.31740 -69.32343 37924 ft 493 kts 232°
2026-04-23 13:16 44.27071 -69.39377 37928 ft 493 kts 232°
2026-04-23 13:16 44.22397 -69.46381 37929 ft 493 kts 232°
2026-04-23 13:17 44.17727 -69.53383 37928 ft 493 kts 233°
2026-04-23 13:17 44.13049 -69.60355 37929 ft 493 kts 233°
2026-04-23 13:18 44.08377 -69.67326 37929 ft 492 kts 233°
2026-04-23 13:18 44.03722 -69.74232 37944 ft 493 kts 233°
2026-04-23 13:19 43.99040 -69.81180 37944 ft 492 kts 233°
2026-04-23 13:19 43.94348 -69.88110 37961 ft 492 kts 233°
2026-04-23 13:20 43.89656 -69.95035 37957 ft 492 kts 233°
2026-04-23 13:20 43.84954 -70.01950 37944 ft 493 kts 233°
2026-04-23 13:21 43.80246 -70.08860 37935 ft 494 kts 233°
2026-04-23 13:21 43.75525 -70.15770 37938 ft 494 kts 233°
2026-04-23 13:22 43.70795 -70.22679 37995 ft 495 kts 233°
2026-04-23 13:22 43.68422 -70.26133 38146 ft 495 kts 233°
2026-04-23 13:22 43.66055 -70.29584 38344 ft 494 kts 233°
2026-04-23 13:22 43.63689 -70.33027 38555 ft 494 kts 233°
2026-04-23 13:23 43.61321 -70.36461 38748 ft 494 kts 233°
2026-04-23 13:23 43.58948 -70.39903 38935 ft 494 kts 233°
2026-04-23 13:23 43.56576 -70.43343 39105 ft 494 kts 233°
2026-04-23 13:23 43.54207 -70.46772 39297 ft 495 kts 233°
2026-04-23 13:24 43.51831 -70.50202 39473 ft 495 kts 233°
2026-04-23 13:24 43.49452 -70.53635 39633 ft 495 kts 233°
2026-04-23 13:24 43.47079 -70.57060 39793 ft 495 kts 233°
2026-04-23 13:24 43.44728 -70.60444 39941 ft 495 kts 232°
2026-04-23 13:25 43.42339 -70.63879 39939 ft 496 kts 233°
2026-04-23 13:25 43.37662 -70.70594 39933 ft 496 kts 233°
2026-04-23 13:26 43.32308 -70.76662 39970 ft 512 kts 215°
2026-04-23 13:26 43.26072 -70.81421 39919 ft 512 kts 217°
2026-04-23 13:27 43.19871 -70.86239 39914 ft 513 kts 215°
2026-04-23 13:27 43.13639 -70.90970 39926 ft 512 kts 217°
2026-04-23 13:28 43.07429 -70.95769 39919 ft 513 kts 215°
2026-04-23 13:28 43.01184 -71.00499 39921 ft 512 kts 217°
2026-04-23 13:29 42.94968 -71.05269 39926 ft 513 kts 216°
2026-04-23 13:29 42.89083 -71.10456 39981 ft 500 kts 227°
2026-04-23 13:30 42.83605 -71.16357 39965 ft 505 kts 224°
2026-04-23 13:30 42.78065 -71.22178 39963 ft 501 kts 227°
2026-04-23 13:31 42.72577 -71.28084 39956 ft 504 kts 225°
2026-04-23 13:31 42.67019 -71.33891 39961 ft 502 kts 227°
2026-04-23 13:32 42.61532 -71.39764 39952 ft 504 kts 225°
2026-04-23 13:32 42.56899 -71.44556 39960 ft 502 kts 226°
2026-04-23 13:33 42.51420 -71.50425 39965 ft 503 kts 226°
2026-04-23 13:33 42.45010 -71.57076 39988 ft 502 kts 227°
2026-04-23 13:34 42.40411 -71.61958 39986 ft 503 kts 226°
2026-04-23 13:34 42.34927 -71.67616 39972 ft 501 kts 226°
2026-04-23 13:35 42.29431 -71.73411 39968 ft 501 kts 226°
2026-04-23 13:35 42.23884 -71.79122 39973 ft 500 kts 226°
2026-04-23 13:36 42.18387 -71.84878 39965 ft 500 kts 226°
2026-04-23 13:36 42.12723 -71.90321 39970 ft 511 kts 215°
2026-04-23 13:37 42.06321 -71.94608 39978 ft 511 kts 216°
2026-04-23 13:37 42.00026 -71.99079 39980 ft 513 kts 214°
2026-04-23 13:38 41.93633 -72.03319 39988 ft 510 kts 216°
2026-04-23 13:38 41.87349 -72.07743 39991 ft 511 kts 214°
2026-04-23 13:39 41.80976 -72.11974 39993 ft 509 kts 215°
2026-04-23 13:39 41.74795 -72.16287 39994 ft 509 kts 214°
2026-04-23 13:40 41.68443 -72.20505 39994 ft 508 kts 215°
2026-04-23 13:40 41.62174 -72.24836 39991 ft 508 kts 214°
2026-04-23 13:41 41.55849 -72.29041 39999 ft 507 kts 215°
2026-04-23 13:41 41.49576 -72.33336 40001 ft 507 kts 214°
2026-04-23 13:42 41.43265 -72.37528 39998 ft 507 kts 214°
2026-04-23 13:42 41.36986 -72.41796 39987 ft 507 kts 214°
2026-04-23 13:43 41.30667 -72.45986 39996 ft 507 kts 214°
2026-04-23 13:43 41.24709 -72.50668 40009 ft 495 kts 224°
2026-04-23 13:44 41.19070 -72.55962 40013 ft 498 kts 221°
2026-04-23 13:44 41.13352 -72.61150 40025 ft 496 kts 223°
2026-04-23 13:45 41.07996 -72.66156 40026 ft 499 kts 222°
2026-04-23 13:45 41.02444 -72.71169 40045 ft 498 kts 223°
2026-04-23 13:46 40.96764 -72.76444 40046 ft 500 kts 222°
2026-04-23 13:46 40.91084 -72.81719 40035 ft 496 kts 225°
2026-04-23 13:47 40.85530 -72.87169 40028 ft 499 kts 223°
2026-04-23 13:47 40.79934 -72.92561 40030 ft 497 kts 225°
2026-04-23 13:48 40.74404 -72.97991 40027 ft 500 kts 223°
2026-04-23 13:48 40.68788 -73.03383 40030 ft 498 kts 225°
2026-04-23 13:49 40.63215 -73.08825 40027 ft 500 kts 223°
2026-04-23 13:49 40.57595 -73.14209 40031 ft 499 kts 224°
2026-04-23 13:50 40.51999 -73.19636 40028 ft 500 kts 223°
2026-04-23 13:50 40.46380 -73.25008 40032 ft 499 kts 224°
2026-04-23 13:51 40.40778 -73.30407 40033 ft 500 kts 223°
2026-04-23 13:51 40.35275 -73.35656 40036 ft 500 kts 224°
2026-04-23 13:52 40.29653 -73.41044 40035 ft 501 kts 223°
2026-04-23 13:52 40.24050 -73.46375 40042 ft 500 kts 224°
2026-04-23 13:53 40.18403 -73.51716 40037 ft 501 kts 223°
2026-04-23 13:53 40.12755 -73.57061 40038 ft 500 kts 224°
2026-04-23 13:54 40.07324 -73.62171 40033 ft 501 kts 223°
2026-04-23 13:54 40.01668 -73.67504 40032 ft 501 kts 223°
2026-04-23 13:55 39.95924 -73.72676 40018 ft 509 kts 213°
2026-04-23 13:55 39.89274 -73.76168 40042 ft 515 kts 209°
2026-04-23 13:56 39.82709 -73.79859 40038 ft 515 kts 208°
2026-04-23 13:56 39.76071 -73.83211 40042 ft 514 kts 209°
2026-04-23 13:57 39.69499 -73.86861 40043 ft 514 kts 208°
2026-04-23 13:57 39.63060 -73.90133 40041 ft 514 kts 208°
2026-04-23 13:58 39.56481 -73.93735 40043 ft 513 kts 208°
2026-04-23 13:58 39.49827 -73.97140 40045 ft 513 kts 208°
2026-04-23 13:59 39.43251 -74.00708 40044 ft 511 kts 210°
2026-04-23 13:59 39.40228 -74.02881 40066 ft 496 kts 225°
2026-04-23 13:59 39.37597 -74.05730 40058 ft 493 kts 228°
2026-04-23 14:00 39.33181 -74.10498 40051 ft 494 kts 226°
2026-04-23 14:00 39.27122 -74.17171 40046 ft 492 kts 228°
2026-04-23 14:01 39.21841 -74.22840 40045 ft 493 kts 227°
2026-04-23 14:01 39.16626 -74.28567 40050 ft 493 kts 227°
2026-04-23 14:02 39.11353 -74.34222 40044 ft 493 kts 227°
2026-04-23 14:02 39.06126 -74.39927 40049 ft 492 kts 227°
2026-04-23 14:03 39.00851 -74.45570 40048 ft 493 kts 227°
2026-04-23 14:03 38.95711 -74.51151 40047 ft 492 kts 227°
2026-04-23 14:04 38.90615 -74.56986 40049 ft 489 kts 230°
2026-04-23 14:04 38.85691 -74.62688 40046 ft 490 kts 229°
2026-04-23 14:05 38.80679 -74.68594 40050 ft 489 kts 230°
2026-04-23 14:05 38.75628 -74.74442 40049 ft 489 kts 229°
2026-04-23 14:06 38.70347 -74.80018 40048 ft 492 kts 226°
2026-04-23 14:06 38.65096 -74.85530 40049 ft 491 kts 226°
2026-04-23 14:07 38.59778 -74.91024 40042 ft 492 kts 226°
2026-04-23 14:07 38.51854 -74.99354 40045 ft 488 kts 229°
2026-04-23 14:08 38.46727 -75.05083 40049 ft 491 kts 226°
2026-04-23 14:08 38.41193 -75.10284 40062 ft 494 kts 223°
2026-04-23 14:09 38.35724 -75.15576 40056 ft 493 kts 224°
2026-04-23 14:09 38.30181 -75.20753 40057 ft 494 kts 223°
2026-04-23 14:10 38.24960 -75.25760 40053 ft 493 kts 224°
2026-04-23 14:10 38.19429 -75.30933 40050 ft 494 kts 223°
2026-04-23 14:11 38.13935 -75.36162 40046 ft 493 kts 223°
2026-04-23 14:11 38.08399 -75.41329 40044 ft 494 kts 223°
2026-04-23 14:12 38.02810 -75.46405 40043 ft 496 kts 220°
2026-04-23 14:12 37.97154 -75.51387 40048 ft 495 kts 221°
2026-04-23 14:13 37.91591 -75.56214 40048 ft 496 kts 220°
2026-04-23 14:13 37.85914 -75.61163 40050 ft 495 kts 221°
2026-04-23 14:14 37.80015 -75.65751 40051 ft 500 kts 216°
2026-04-23 14:14 37.74078 -75.70302 40060 ft 498 kts 218°
2026-04-23 14:15 37.68089 -75.74746 40067 ft 500 kts 216°
2026-04-23 14:15 37.62145 -75.79249 40057 ft 498 kts 217°
2026-04-23 14:16 37.56164 -75.83690 40058 ft 499 kts 216°
2026-04-23 14:16 37.50735 -75.88395 40079 ft 489 kts 226°
2026-04-23 14:17 37.45463 -75.93842 40065 ft 492 kts 223°
2026-04-23 14:17 37.40123 -75.99113 40061 ft 489 kts 226°
2026-04-23 14:18 37.34842 -76.04536 40071 ft 491 kts 224°
2026-04-23 14:18 37.30329 -76.08958 40069 ft 490 kts 225°
2026-04-23 14:19 37.25045 -76.14375 40063 ft 491 kts 224°
2026-04-23 14:19 37.19702 -76.19625 40063 ft 490 kts 225°
2026-04-23 14:20 37.14400 -76.25011 40057 ft 491 kts 224°
2026-04-23 14:20 37.09024 -76.30300 40060 ft 491 kts 224°
2026-04-23 14:21 37.03698 -76.35666 40061 ft 491 kts 224°
2026-04-23 14:21 36.98328 -76.40950 40060 ft 491 kts 224°
2026-04-23 14:22 36.92991 -76.46289 40111 ft 491 kts 223°
2026-04-23 14:22 36.87735 -76.51456 40087 ft 491 kts 224°
2026-04-23 14:23 36.82560 -76.56605 40090 ft 492 kts 223°
2026-04-23 14:23 36.77178 -76.61888 40101 ft 492 kts 224°
2026-04-23 14:24 36.71813 -76.67192 40107 ft 492 kts 223°
2026-04-23 14:24 36.66430 -76.72468 40104 ft 492 kts 223°
2026-04-23 14:25 36.61055 -76.77757 40097 ft 493 kts 223°
2026-04-23 14:25 36.55661 -76.83027 40104 ft 492 kts 223°
2026-04-23 14:26 36.50280 -76.88298 40095 ft 493 kts 223°
2026-04-23 14:26 36.44907 -76.93536 40099 ft 493 kts 223°
2026-04-23 14:27 36.39514 -76.98792 40096 ft 493 kts 223°
2026-04-23 14:27 36.34106 -77.04050 40098 ft 493 kts 223°
2026-04-23 14:28 36.28699 -77.09298 40096 ft 493 kts 222°
2026-04-23 14:28 36.23295 -77.14534 40091 ft 493 kts 222°
2026-04-23 14:29 36.17887 -77.19763 40088 ft 493 kts 222°
2026-04-23 14:29 36.12565 -77.24904 40098 ft 493 kts 222°
2026-04-23 14:30 36.07188 -77.30082 40109 ft 493 kts 222°
2026-04-23 14:30 36.01772 -77.35302 40102 ft 492 kts 222°
2026-04-23 14:31 35.96396 -77.40531 40100 ft 492 kts 222°
2026-04-23 14:31 35.90996 -77.45728 40103 ft 491 kts 222°
2026-04-23 14:32 35.85703 -77.50851 40098 ft 491 kts 222°
2026-04-23 14:32 35.80342 -77.55997 40098 ft 491 kts 222°
2026-04-23 14:33 35.74962 -77.61181 40108 ft 491 kts 221°
2026-04-23 14:33 35.69563 -77.66352 40108 ft 491 kts 222°
2026-04-23 14:34 35.64181 -77.71512 40112 ft 491 kts 221°
2026-04-23 14:34 35.58792 -77.76662 40127 ft 491 kts 221°
2026-04-23 14:35 35.53393 -77.81813 40122 ft 491 kts 221°
2026-04-23 14:35 35.47996 -77.86961 40126 ft 491 kts 221°
2026-04-23 14:36 35.42718 -77.91974 40125 ft 491 kts 221°
2026-04-23 14:36 35.37362 -77.97066 40124 ft 491 kts 221°
2026-04-23 14:37 35.31918 -78.02219 40118 ft 491 kts 221°
2026-04-23 14:37 35.26546 -78.07309 40119 ft 492 kts 221°
2026-04-23 14:38 35.21123 -78.12423 40119 ft 492 kts 221°
2026-04-23 14:38 35.15706 -78.17539 40129 ft 492 kts 221°
2026-04-23 14:39 35.10272 -78.22647 40117 ft 493 kts 221°
2026-04-23 14:39 35.04841 -78.27755 40140 ft 493 kts 221°
2026-04-23 14:40 34.99398 -78.32859 40131 ft 494 kts 221°
2026-04-23 14:40 34.93948 -78.37964 40141 ft 494 kts 221°
2026-04-23 14:41 34.88495 -78.43064 40135 ft 494 kts 221°
2026-04-23 14:41 34.83136 -78.48064 40128 ft 494 kts 221°
2026-04-23 14:42 34.77678 -78.53153 40132 ft 494 kts 221°
2026-04-23 14:42 34.72286 -78.58166 40142 ft 493 kts 221°
2026-04-23 14:43 34.66826 -78.63242 40140 ft 494 kts 221°
2026-04-23 14:43 34.61369 -78.68295 40142 ft 493 kts 220°
2026-04-23 14:44 34.55920 -78.73347 40143 ft 493 kts 220°
2026-04-23 14:44 34.50468 -78.78376 40139 ft 492 kts 220°
2026-04-23 14:45 34.45008 -78.83403 40150 ft 492 kts 220°
2026-04-23 14:45 34.39412 -78.88131 40152 ft 494 kts 218°
2026-04-23 14:46 34.33824 -78.92960 40154 ft 494 kts 218°
2026-04-23 14:46 34.28150 -78.97643 40145 ft 494 kts 218°
2026-04-23 14:47 34.22547 -79.02436 40148 ft 493 kts 218°
2026-04-23 14:47 34.16884 -79.07121 40151 ft 493 kts 218°
2026-04-23 14:48 34.11277 -79.11880 40158 ft 493 kts 217°
2026-04-23 14:48 34.05615 -79.16567 40161 ft 493 kts 218°
2026-04-23 14:49 34.00041 -79.21268 40157 ft 493 kts 217°
2026-04-23 14:49 33.94384 -79.25955 40161 ft 493 kts 217°
2026-04-23 14:50 33.88750 -79.30682 40157 ft 493 kts 217°
2026-04-23 14:50 33.83136 -79.35326 40162 ft 492 kts 217°
2026-04-23 14:51 33.77504 -79.40027 40161 ft 493 kts 217°
2026-04-23 14:51 33.71891 -79.44663 40164 ft 493 kts 217°
2026-04-23 14:52 33.66248 -79.49353 40162 ft 493 kts 217°
2026-04-23 14:52 33.60597 -79.54009 40170 ft 493 kts 217°
2026-04-23 14:53 33.54948 -79.58687 40162 ft 493 kts 217°
2026-04-23 14:53 33.49291 -79.63334 40164 ft 492 kts 217°
2026-04-23 14:54 33.43689 -79.67954 40166 ft 491 kts 217°
2026-04-23 14:54 33.38045 -79.72580 40161 ft 492 kts 217°
2026-04-23 14:55 33.32537 -79.77104 40171 ft 491 kts 217°
2026-04-23 14:55 33.26894 -79.81718 40181 ft 491 kts 217°
2026-04-23 14:56 33.21257 -79.86324 40182 ft 491 kts 217°
2026-04-23 14:56 33.15620 -79.90927 40182 ft 492 kts 217°
2026-04-23 14:57 33.09971 -79.95521 40184 ft 492 kts 217°
2026-04-23 14:57 33.04323 -80.00124 40179 ft 492 kts 217°
2026-04-23 14:58 32.98660 -80.04710 40192 ft 492 kts 217°
2026-04-23 14:58 32.93001 -80.09309 40189 ft 491 kts 217°
2026-04-23 14:59 32.87349 -80.13874 40191 ft 491 kts 217°
2026-04-23 14:59 32.81735 -80.18420 40190 ft 490 kts 216°
2026-04-23 15:00 32.76089 -80.22965 40179 ft 490 kts 217°
2026-04-23 15:00 32.70488 -80.27488 40185 ft 490 kts 216°
2026-04-23 15:01 32.64835 -80.32026 40194 ft 490 kts 216°
2026-04-23 15:01 32.59184 -80.36571 40181 ft 490 kts 216°
2026-04-23 15:02 32.53311 -80.40685 40187 ft 491 kts 211°
2026-04-23 15:02 32.47387 -80.44738 40182 ft 491 kts 212°
2026-04-23 15:03 32.41436 -80.48709 40189 ft 491 kts 211°
2026-04-23 15:03 32.35513 -80.52737 40196 ft 490 kts 212°
2026-04-23 15:04 32.29574 -80.56693 40205 ft 490 kts 211°
2026-04-23 15:04 32.23652 -80.60703 40202 ft 490 kts 212°
2026-04-23 15:05 32.17701 -80.64660 40215 ft 490 kts 212°
2026-04-23 15:05 32.11781 -80.68654 40197 ft 490 kts 212°
2026-04-23 15:06 32.05844 -80.72593 40184 ft 490 kts 212°
2026-04-23 15:06 32.00928 -80.75899 40195 ft 489 kts 212°
2026-04-23 15:07 31.94997 -80.79829 40177 ft 489 kts 212°
2026-04-23 15:07 31.89100 -80.83776 40161 ft 489 kts 212°
2026-04-23 15:08 31.83160 -80.87703 40161 ft 489 kts 212°
2026-04-23 15:09 31.74278 -80.93598 40171 ft 488 kts 211°
2026-04-23 15:09 31.68370 -80.97521 40170 ft 487 kts 212°
2026-04-23 15:10 31.62458 -81.01416 40174 ft 487 kts 211°
2026-04-23 15:10 31.56508 -81.05216 40172 ft 487 kts 208°
2026-04-23 15:11 31.50558 -81.08918 40181 ft 487 kts 211°
2026-04-23 15:11 31.44496 -81.12608 40187 ft 488 kts 208°
2026-04-23 15:12 31.38532 -81.16275 40191 ft 487 kts 210°
2026-04-23 15:12 31.32481 -81.19876 40202 ft 488 kts 208°
2026-04-23 15:13 31.26426 -81.23462 40188 ft 488 kts 210°
2026-04-23 15:13 31.20370 -81.27033 40191 ft 488 kts 205°
2026-04-23 15:13 31.17107 -81.28132 40203 ft 492 kts 188°
2026-04-23 15:14 31.13675 -81.28299 40196 ft 495 kts 181°
2026-04-23 15:14 31.06785 -81.28222 40185 ft 494 kts 181°
2026-04-23 15:15 30.99911 -81.28227 40192 ft 494 kts 181°
2026-04-23 15:15 30.93034 -81.28191 40195 ft 494 kts 182°
2026-04-23 15:16 30.86197 -81.28188 40195 ft 494 kts 181°
2026-04-23 15:16 30.79317 -81.28161 40202 ft 494 kts 182°
2026-04-23 15:17 30.72450 -81.28149 40197 ft 493 kts 181°
2026-04-23 15:17 30.65577 -81.28130 40205 ft 493 kts 182°
2026-04-23 15:18 30.58711 -81.28018 40026 ft 496 kts 178°
2026-04-23 15:18 30.55271 -81.27721 39570 ft 495 kts 177°
2026-04-23 15:18 30.51844 -81.27458 39058 ft 494 kts 178°
2026-04-23 15:18 30.48414 -81.27239 38427 ft 493 kts 178°
2026-04-23 15:19 30.44999 -81.26986 37777 ft 490 kts 177°
2026-04-23 15:19 30.41603 -81.26697 37136 ft 487 kts 177°
2026-04-23 15:19 30.38282 -81.26446 36536 ft 485 kts 178°
2026-04-23 15:19 30.34909 -81.26221 35934 ft 485 kts 177°
2026-04-23 15:20 30.31540 -81.25968 35355 ft 486 kts 176°
2026-04-23 15:20 30.28159 -81.25691 34781 ft 488 kts 176°
2026-04-23 15:20 30.24763 -81.25438 34226 ft 489 kts 177°
2026-04-23 15:20 30.21359 -81.25203 33591 ft 491 kts 177°
2026-04-23 15:21 30.17944 -81.24944 32972 ft 492 kts 176°
2026-04-23 15:21 30.14525 -81.24671 32363 ft 493 kts 176°
2026-04-23 15:21 30.11089 -81.24420 31766 ft 495 kts 177°
2026-04-23 15:21 30.07649 -81.24177 31191 ft 496 kts 177°
2026-04-23 15:22 30.04189 -81.23911 30623 ft 498 kts 176°
2026-04-23 15:22 30.00722 -81.23643 30020 ft 500 kts 177°
2026-04-23 15:22 29.97250 -81.23392 29357 ft 500 kts 177°
2026-04-23 15:22 29.93778 -81.23142 28733 ft 501 kts 177°
2026-04-23 15:23 29.90332 -81.22879 28085 ft 502 kts 177°
2026-04-23 15:23 29.86840 -81.22606 27476 ft 503 kts 177°
2026-04-23 15:23 29.83332 -81.22348 26881 ft 505 kts 178°
2026-04-23 15:23 29.79819 -81.22102 26294 ft 507 kts 178°
2026-04-23 15:24 29.76292 -81.21840 25727 ft 509 kts 178°
2026-04-23 15:24 29.72750 -81.21565 25165 ft 511 kts 178°
2026-04-23 15:24 29.69195 -81.21302 24620 ft 512 kts 178°
2026-04-23 15:24 29.65636 -81.21010 24076 ft 514 kts 177°
2026-04-23 15:25 29.62060 -81.20670 23504 ft 515 kts 177°
2026-04-23 15:25 29.58476 -81.20350 22883 ft 516 kts 178°
2026-04-23 15:25 29.54892 -81.20067 22259 ft 517 kts 178°
2026-04-23 15:25 29.51295 -81.19769 21649 ft 519 kts 178°
2026-04-23 15:26 29.47691 -81.19443 21060 ft 521 kts 177°
2026-04-23 15:26 29.44072 -81.19126 20508 ft 521 kts 178°
2026-04-23 15:26 29.40538 -81.18833 19322 ft 500 kts 178°
2026-04-23 15:26 29.37234 -81.18552 19062 ft 444 kts 177°
2026-04-23 15:27 29.34295 -81.18289 19323 ft 408 kts 178°
2026-04-23 15:27 29.31489 -81.18055 18728 ft 404 kts 178°
2026-04-23 15:27 29.28711 -81.17832 18290 ft 397 kts 178°
2026-04-23 15:27 29.25979 -81.17591 17804 ft 390 kts 177°
2026-04-23 15:28 29.23304 -81.17338 17065 ft 378 kts 177°
2026-04-23 15:28 29.20727 -81.17111 16250 ft 360 kts 177°
2026-04-23 15:28 29.18349 -81.16777 15757 ft 332 kts 164°
2026-04-23 15:28 29.16225 -81.15839 15320 ft 328 kts 158°
2026-04-23 15:29 29.14154 -81.14870 15328 ft 319 kts 161°
2026-04-23 15:29 29.12072 -81.14096 15106 ft 308 kts 165°
2026-04-23 15:29 29.10061 -81.13310 14727 ft 304 kts 160°
2026-04-23 15:29 29.08112 -81.12377 14330 ft 302 kts 158°
2026-04-23 15:30 29.06168 -81.11492 13928 ft 298 kts 162°
2026-04-23 15:30 29.04356 -81.10809 13491 ft 295 kts 165°
2026-04-23 15:30 29.03979 -81.10685 13390 ft 294 kts 166°
2026-04-23 15:31 29.01960 -81.09970 12932 ft 292 kts 162°
2026-04-23 15:31 29.00065 -81.09166 12495 ft 289 kts 160°
2026-04-23 15:31 28.98174 -81.08404 12063 ft 286 kts 163°
2026-04-23 15:31 28.96254 -81.07936 11628 ft 281 kts 175°
2026-04-23 15:32 28.94315 -81.07821 11211 ft 277 kts 177°
2026-04-23 15:32 28.92406 -81.07633 10784 ft 274 kts 172°
2026-04-23 15:32 28.90554 -81.07326 10385 ft 270 kts 171°
2026-04-23 15:32 28.88698 -81.07185 9956 ft 267 kts 187°
2026-04-23 15:33 28.86989 -81.07959 9536 ft 266 kts 213°
2026-04-23 15:33 28.85527 -81.09245 9104 ft 265 kts 216°
2026-04-23 15:33 28.84014 -81.10441 8660 ft 265 kts 210°
2026-04-23 15:33 28.82451 -81.11558 8236 ft 265 kts 211°
2026-04-23 15:34 28.80937 -81.12786 7808 ft 267 kts 215°
2026-04-23 15:34 28.79449 -81.14050 7382 ft 267 kts 213°
2026-04-23 15:34 28.77915 -81.15254 6977 ft 267 kts 211°
2026-04-23 15:34 28.76374 -81.16294 6295 ft 243 kts 204°
2026-04-23 15:35 28.74927 -81.17136 5898 ft 233 kts 206°
2026-04-23 15:35 28.73540 -81.18030 5567 ft 224 kts 208°
2026-04-23 15:35 28.72173 -81.18918 5212 ft 229 kts 206°
2026-04-23 15:35 28.70770 -81.19764 4840 ft 226 kts 205°
2026-04-23 15:36 28.69387 -81.20591 4472 ft 222 kts 205°
2026-04-23 15:36 28.68053 -81.21424 4129 ft 217 kts 206°
2026-04-23 15:36 28.66739 -81.22235 3817 ft 214 kts 206°
2026-04-23 15:36 28.65468 -81.23021 3527 ft 200 kts 206°
2026-04-23 15:37 28.64261 -81.23772 3228 ft 198 kts 206°
2026-04-23 15:37 28.63066 -81.24510 2921 ft 193 kts 206°
2026-04-23 15:37 28.62281 -81.24984 2734 ft 192 kts 205°
2026-04-23 15:37 28.60732 -81.25931 2448 ft 192 kts 206°
2026-04-23 15:38 28.59558 -81.26667 2243 ft 193 kts 206°
2026-04-23 15:38 28.58381 -81.27394 1964 ft 192 kts 205°
2026-04-23 15:38 28.57189 -81.28089 1655 ft 194 kts 199°
2026-04-23 15:38 28.55889 -81.28337 1476 ft 182 kts 176°
2026-04-23 15:39 28.54583 -81.28307 1489 ft 186 kts 178°
2026-04-23 15:39 28.53266 -81.28342 1490 ft 192 kts 179°
2026-04-23 15:39 28.52011 -81.28365 1489 ft 172 kts 176°
2026-04-23 15:39 28.50794 -81.28324 1382 ft 173 kts 175°
2026-04-23 15:40 28.49639 -81.28296 1174 ft 156 kts 177°
2026-04-23 15:40 28.48610 -81.28317 974 ft 149 kts 176°
2026-04-23 15:40 28.47598 -81.28306 744 ft 140 kts 175°
2026-04-23 15:40 28.46631 -81.28284 556 ft 138 kts 174°
2026-04-23 15:41 28.45675 -81.28265 400 ft 137 kts 178°
2026-04-23 15:41 28.44727 -81.28287 233 ft 140 kts 175°
2026-04-23 15:41 28.43784 -81.28238 103 ft 125 kts 178°
2026-04-23 15:41 28.43211 -81.28247 99 ft 51 kts 179°
2026-04-23 15:42 28.42876 -81.28240 101 ft 45 kts 180°
2026-04-23 15:42 28.42636 -81.28245 102 ft 23 kts 189°
2026-04-23 15:42 28.42523 -81.28345 102 ft 20 kts 251°
2026-04-23 15:42 28.42477 -81.28502 99 ft 22 kts 250°
2026-04-23 15:43 28.42426 -81.28662 102 ft 19 kts 250°
2026-04-23 15:43 28.42384 -81.28798 106 ft 17 kts 250°
2026-04-23 15:43 28.42343 -81.28932 106 ft 19 kts 250°
2026-04-23 15:43 28.42294 -81.29099 98 ft 25 kts 256°
2026-04-23 15:44 28.42285 -81.29305 97 ft 27 kts 269°
2026-04-23 15:44 28.42283 -81.29459 98 ft 4 kts 269°
2026-04-23 15:44 28.42282 -81.29532 97 ft 15 kts 269°
2026-04-23 15:44 28.42281 -81.29677 97 ft 20 kts 270°
2026-04-23 15:45 28.42281 -81.29838 97 ft 22 kts 270°
2026-04-23 15:45 28.42278 -81.30016 97 ft 24 kts 269°
2026-04-23 15:45 28.42276 -81.30202 97 ft 19 kts 269°
2026-04-23 15:45 28.42277 -81.30362 97 ft 19 kts 277°
2026-04-23 15:46 28.42356 -81.30403 99 ft 14 kts 360°
2026-04-23 15:46 28.42457 -81.30402 99 ft 15 kts 359°
2026-04-23 15:46 28.42550 -81.30383 98 ft 14 kts 47°
2026-04-23 15:46 28.42538 -81.30302 98 ft 10 kts 119°
2026-04-23 15:47 28.42534 -81.30241 100 ft 6 kts 57°
2026-04-23 15:47 28.42550 -81.30231 99 ft 1 kts 17°
2026-04-23 15:47 28.42581 -81.30229 99 ft 7 kts
2026-04-23 15:47 28.42634 -81.30226 98 ft 7 kts
2026-04-23 15:48 28.42647 -81.30226 99 ft 0 kts